timestamp,surface_pressure_avg,surface_temp_avg,battery_voltage,lat,long
2019-11-16 00:09:01+00:00,310.7614,7.92,12.73,47.84626,-54.09684
2019-11-16 00:19:01+00:00,315.9464,7.9,12.73,47.84626,-54.09684
2019-11-16 00:29:01+00:00,317.5997,7.9,12.73,47.84626,-54.09684
2019-11-16 00:39:01+00:00,324.3864,7.9,12.73,47.84626,-54.09684
2019-11-16 00:49:01+00:00,329.4813,7.9,12.73,47.84626,-54.09684
2019-11-16 00:59:01+00:00,333.0513,7.9,12.73,47.84626,-54.09684
2019-11-16 01:09:01+00:00,340.4346,7.9,12.73,47.84626,-54.09684
2019-11-16 01:19:01+00:00,344.4147,7.9,12.73,47.84626,-54.09684
2019-11-16 01:29:01+00:00,344.0213,7.89,12.73,47.84626,-54.09684
2019-11-16 01:39:01+00:00,343.1663,7.88,12.73,47.84626,-54.09684
2019-11-16 01:49:01+00:00,344.6813,7.89,12.73,47.84626,-54.09684
2019-11-16 01:59:01+00:00,340.8163,7.89,12.73,47.84626,-54.09684
2019-11-16 02:09:01+00:00,338.61300000000006,7.84,12.73,47.84626,-54.09684
2019-11-16 02:19:01+00:00,341.6513,7.8,12.73,47.84626,-54.09684
2019-11-16 02:29:01+00:00,337.6447,7.8,12.73,47.84626,-54.09684
2019-11-16 02:39:01+00:00,329.9797,7.8,12.73,47.84626,-54.09684
2019-11-16 02:49:01+00:00,325.3445,7.8,12.73,47.84626,-54.09684
2019-11-16 02:59:01+00:00,329.1464,7.8,12.73,47.84626,-54.09684
2019-11-16 03:09:01+00:00,329.9179,7.8,12.73,47.84626,-54.09684
2019-11-16 03:19:01+00:00,320.5364,7.8,12.73,47.84626,-54.09684
2019-11-16 03:29:01+00:00,318.0663,7.8,12.73,47.84626,-54.09684
2019-11-16 03:39:01+00:00,317.6247,7.8,12.73,47.84626,-54.09684
2019-11-16 03:49:01+00:00,311.753,7.8,12.73,47.84626,-54.09684
2019-11-16 03:59:01+00:00,304.1246,7.79,12.73,47.84626,-54.09684
2019-11-16 04:09:01+00:00,297.4847,7.77,12.73,47.84626,-54.09684
2019-11-16 04:19:01+00:00,293.1147,7.76,12.73,47.84626,-54.09684
2019-11-16 04:29:01+00:00,282.8513,7.76,12.73,47.84626,-54.09684
2019-11-16 04:39:01+00:00,278.0747,7.75,12.73,47.84626,-54.09684
2019-11-16 04:49:01+00:00,275.1298,7.74,12.73,47.84626,-54.09684
2019-11-16 04:59:01+00:00,267.6797,7.72,12.73,47.84626,-54.09684
2019-11-16 05:09:01+00:00,259.638,7.7,12.73,47.84626,-54.09684
2019-11-16 05:19:01+00:00,251.6831,7.7,12.73,47.84626,-54.09684
2019-11-16 05:29:01+00:00,247.6297,7.7,12.73,47.84626,-54.09684
2019-11-16 05:39:01+00:00,237.7248,7.7,12.73,47.84626,-54.09684
2019-11-16 05:49:01+00:00,228.2614,7.7,12.73,47.84626,-54.09684
2019-11-16 05:59:01+00:00,224.0898,7.7,12.73,47.84626,-54.09684
2019-11-16 06:09:01+00:00,219.5964,7.7,12.73,47.84626,-54.09684
2019-11-16 06:19:01+00:00,214.4114,7.7,12.73,47.84626,-54.09684
2019-11-16 06:29:01+00:00,206.9198,7.71,12.73,47.84626,-54.09684
2019-11-16 06:39:01+00:00,203.1781,7.73,12.73,47.84626,-54.09684
2019-11-16 06:49:01+00:00,203.9265,7.74,12.73,47.84626,-54.09684
2019-11-16 06:59:01+00:00,203.9798,7.74,12.73,47.84626,-54.09684
2019-11-16 07:09:01+00:00,199.3448,7.73,12.73,47.84626,-54.09684
2019-11-16 07:19:01+00:00,195.9715,7.73,12.73,47.84626,-54.09684
2019-11-16 07:29:01+00:00,197.3531,7.72,12.73,47.84626,-54.09684
2019-11-16 07:39:01+00:00,198.8331,7.71,12.73,47.84626,-54.09684
2019-11-16 07:49:01+00:00,198.0248,7.7,12.73,47.84626,-54.09684
2019-11-16 07:59:01+00:00,200.0965,7.7,12.73,47.84626,-54.09684
2019-11-16 08:09:01+00:00,205.2781,7.7,12.73,47.84626,-54.09684
2019-11-16 08:19:01+00:00,209.3365,7.7,12.73,47.84626,-54.09684
2019-11-16 08:29:01+00:00,215.8098,7.7,12.73,47.84626,-54.09684
2019-11-16 08:39:01+00:00,222.4481,7.7,12.73,47.84626,-54.09684
2019-11-16 08:49:01+00:00,232.1081,7.72,12.73,47.84626,-54.09684
2019-11-16 08:59:01+00:00,240.3514,7.74,12.73,47.84626,-54.09684
2019-11-16 09:09:01+00:00,246.0948,7.77,12.73,47.84626,-54.09684
2019-11-16 09:19:01+00:00,250.7231,7.77,12.73,47.84626,-54.09684
2019-11-16 09:29:01+00:00,254.0464,7.78,12.73,47.84626,-54.09684
2019-11-16 09:39:01+00:00,256.0898,7.78,12.73,47.84626,-54.09684
2019-11-16 09:49:01+00:00,257.1297,7.79,12.73,47.84626,-54.09684
2019-11-16 09:59:01+00:00,260.4581,7.8,12.73,47.84626,-54.09684
2019-11-16 10:09:01+00:00,265.4047,7.8,12.73,47.84626,-54.09684
2019-11-16 10:19:01+00:00,267.0381,7.8,12.73,47.84626,-54.09684
2019-11-16 10:29:01+00:00,265.8531,7.8,12.73,47.84626,-54.09684
2019-11-16 10:39:01+00:00,271.3348,7.8,12.73,47.84626,-54.09684
2019-11-16 10:49:01+00:00,274.6614,7.8,12.73,47.84626,-54.09684
2019-11-16 10:59:01+00:00,275.5464,7.8,12.73,47.84626,-54.09684
2019-11-16 11:09:01+00:00,280.5331,7.8,12.73,47.84626,-54.09684
2019-11-16 11:19:01+00:00,284.9363,7.8,12.73,47.84626,-54.09684
2019-11-16 11:29:01+00:00,287.8864,7.8,12.73,47.84626,-54.09684
2019-11-16 11:39:01+00:00,295.533,7.8,12.73,47.84626,-54.09684
2019-11-16 11:49:01+00:00,301.3314,7.8,12.73,47.84626,-54.09684
2019-11-16 11:59:01+00:00,300.5113,7.8,12.73,47.84626,-54.09684
2019-11-16 12:09:01+00:00,311.3497,7.8,12.73,47.84626,-54.09684
2019-11-16 12:19:01+00:00,325.9746,7.8,12.73,47.84626,-54.09684
2019-11-16 12:29:01+00:00,328.5763,7.8,12.73,47.84626,-54.09684
2019-11-16 12:39:01+00:00,332.1597,7.8,12.73,47.84626,-54.09684
2019-11-16 12:49:01+00:00,340.7014,7.8,12.73,47.84626,-54.09684
2019-11-16 12:59:01+00:00,346.6396,7.8,12.73,47.84626,-54.09684
2019-11-16 13:09:01+00:00,343.5496,7.8,12.73,47.84626,-54.09684
2019-11-16 13:19:01+00:00,346.1579,7.8,12.73,47.84626,-54.09684
2019-11-16 13:29:01+00:00,350.8563,7.8,12.73,47.84626,-54.09684
2019-11-16 13:39:01+00:00,350.1429,7.8,12.73,47.84626,-54.09684
2019-11-16 13:49:01+00:00,353.2646,7.8,12.73,47.84626,-54.09684
2019-11-16 13:59:01+00:00,360.0012,7.8,12.73,47.84626,-54.09684
2019-11-16 14:09:01+00:00,360.6946,7.8,12.73,47.84626,-54.09684
2019-11-16 14:19:01+00:00,357.4963,7.79,13.05,47.84626,-54.09684
2019-11-16 14:29:01+00:00,362.8263,7.8,13.05,47.84626,-54.09684
2019-11-16 14:39:01+00:00,362.9863,7.79,13.05,47.84626,-54.09684
2019-11-16 14:49:01+00:00,357.0346,7.79,13.05,47.84626,-54.09684
2019-11-16 14:59:01+00:00,361.2579,7.79,13.05,47.84626,-54.09684
2019-11-16 15:09:01+00:00,356.6029,7.79,13.05,47.84626,-54.09684
2019-11-16 15:19:01+00:00,339.2164,7.74,13.13,47.84626,-54.09684
2019-11-16 15:29:01+00:00,326.938,7.73,13.13,47.84626,-54.09684
2019-11-16 15:39:01+00:00,323.9264,7.73,13.13,47.84626,-54.09684
2019-11-16 15:49:01+00:00,317.608,7.74,13.13,47.84626,-54.09684
2019-11-16 15:59:01+00:00,303.7596,7.73,13.13,47.84626,-54.09684
2019-11-16 16:09:01+00:00,299.3147,7.72,13.13,47.84626,-54.09684
2019-11-16 16:19:01+00:00,301.7147,7.7,13.21,47.84626,-54.09684
2019-11-16 16:29:01+00:00,298.843,7.7,13.21,47.84626,-54.09684
2019-11-16 16:39:01+00:00,285.9714,7.7,13.21,47.84626,-54.09684
2019-11-16 16:49:01+00:00,277.4448,7.7,13.21,47.84626,-54.09684
2019-11-16 16:59:01+00:00,275.703,7.7,13.21,47.84626,-54.09684
2019-11-16 17:09:01+00:00,270.7747,7.7,13.21,47.84626,-54.09684
2019-11-16 17:19:01+00:00,262.3231,7.7,13.21,47.84626,-54.09684
2019-11-16 17:29:01+00:00,256.1097,7.7,13.21,47.84626,-54.09684
2019-11-16 17:39:01+00:00,249.6264,7.7,13.21,47.84626,-54.09684
2019-11-16 17:49:01+00:00,244.3964,7.7,13.21,47.84626,-54.09684
2019-11-16 17:59:01+00:00,236.7481,7.7,13.21,47.84626,-54.09684
2019-11-16 18:09:01+00:00,223.5898,7.69,13.21,47.84626,-54.09684
2019-11-16 18:19:01+00:00,212.8631,7.65,13.84,47.84626,-54.09684
2019-11-16 18:29:01+00:00,206.5015,7.63,13.84,47.84626,-54.09684
2019-11-16 18:39:01+00:00,200.1715,7.6,13.84,47.84626,-54.09684
2019-11-16 18:49:01+00:00,192.8514,7.6,13.84,47.84626,-54.09684
2019-11-16 18:59:01+00:00,187.6815,7.6,13.84,47.84626,-54.09684
2019-11-16 19:09:01+00:00,186.1648,7.6,13.84,47.84626,-54.09684
2019-11-16 19:19:01+00:00,180.0565,7.6,13.6,47.84626,-54.09684
2019-11-16 19:29:01+00:00,175.7482,7.6,13.6,47.84626,-54.09684
2019-11-16 19:39:01+00:00,179.9898,7.6,13.6,47.84626,-54.09684
2019-11-16 19:49:01+00:00,179.6298,7.6,13.6,47.84626,-54.09684
2019-11-16 19:59:01+00:00,180.1881,7.6,13.6,47.84626,-54.09684
2019-11-16 20:09:01+00:00,182.4815,7.6,13.6,47.84626,-54.09684
2019-11-16 20:19:01+00:00,178.8348,7.54,13.05,47.84626,-54.09684
2019-11-16 20:29:01+00:00,181.9215,7.51,13.05,47.84626,-54.09684
2019-11-16 20:39:01+00:00,189.1148,7.59,13.05,47.84626,-54.09684
2019-11-16 20:49:01+00:00,189.7065,7.57,13.05,47.84626,-54.09684
2019-11-16 20:59:01+00:00,193.1215,7.58,13.05,47.84626,-54.09684
2019-11-16 21:09:01+00:00,206.3948,7.58,13.05,47.84626,-54.09684
2019-11-16 21:19:01+00:00,211.0182,7.56,12.89,47.84626,-54.09684
2019-11-16 21:29:01+00:00,211.9914,7.56,12.89,47.84626,-54.09684
2019-11-16 21:39:01+00:00,217.1848,7.5,12.89,47.84626,-54.09684
2019-11-16 21:49:01+00:00,216.4781,7.5,12.89,47.84626,-54.09684
2019-11-16 21:59:01+00:00,211.9631,7.5,12.89,47.84626,-54.09684
2019-11-16 22:09:01+00:00,214.8881,7.5,12.89,47.84626,-54.09684
2019-11-16 22:19:01+00:00,224.9048,7.5,12.81,47.84626,-54.09684
2019-11-16 22:29:01+00:00,224.6898,7.5,12.81,47.84626,-54.09684
2019-11-16 22:39:01+00:00,222.7664,7.5,12.81,47.84626,-54.09684
2019-11-16 22:49:01+00:00,227.1881,7.5,12.81,47.84626,-54.09684
2019-11-16 22:59:01+00:00,233.7164,7.5,12.81,47.84626,-54.09684
2019-11-16 23:09:01+00:00,234.2731,7.5,12.81,47.84626,-54.09684
2019-11-16 23:19:01+00:00,237.2981,7.5,12.81,47.84626,-54.09684
2019-11-16 23:29:01+00:00,243.2064,7.5,12.81,47.84626,-54.09684
2019-11-16 23:39:01+00:00,247.7631,7.5,12.81,47.84626,-54.09684
2019-11-16 23:49:01+00:00,252.0348,7.5,12.81,47.84626,-54.09684
2019-11-16 23:59:01+00:00,258.7597,7.5,12.81,47.84626,-54.09684
